Theta_e
335 335 335 334 334 333 334 335 336 335 333 332 330 326 323 322 323 326 327 325 324 323 326 331 329 326 327 330 332 330 329 330 331 331 331 332 333 332 329 329 330 330 330 329 327 326 326 326 326 326 325 324 324 321 320 320 319 317 314 314 313 313 317 317 315 314 312 310 309 308 307 308 308 308 308 309 309 310 315 320 321 324 325 325 326
335 335 334 334 334 333 333 335 337 337 336 337 336 334 331 328 325 328 332 331 330 328 326 327 329 329 328 329 331 330 329 330 331 332 333 332 333 332 330 330 330 330 330 330 328 326 326 327 327 327 326 325 325 323 321 320 321 320 316 315 314 313 314 315 314 314 312 310 310 309 308 309 310 310 309 309 310 310 313 318 320 323 325 325 325
333 333 333 334 333 333 332 333 335 336 336 336 335 334 334 333 331 329 329 329 331 332 330 328 329 331 331 330 332 331 329 329 331 331 332 334 334 333 331 330 330 330 330 331 330 328 326 326 328 327 327 326 326 324 322 322 323 322 319 318 316 314 313 314 315 315 313 310 310 309 310 310 310 311 311 310 310 311 313 316 319 321 323 324 324
332 331 331 331 331 332 331 332 333 333 334 334 334 333 333 334 334 332 329 327 327 330 330 330 330 330 331 332 333 332 330 330 329 328 329 333 335 334 333 331 330 331 330 331 331 329 327 327 328 327 327 328 327 326 324 323 324 322 322 321 318 315 313 314 317 315 313 312 311 310 311 311 311 311 311 311 311 312 313 315 317 319 321 323 323
331 330 330 330 332 331 331 331 332 333 332 332 332 333 332 332 334 334 334 332 330 329 329 330 330 330 330 330 331 331 331 330 326 322 324 331 335 334 334 333 332 331 331 330 330 330 329 328 328 328 328 329 328 327 324 323 323 322 323 323 319 315 312 314 318 316 314 314 312 312 312 312 313 312 312 311 311 312 312 313 314 316 320 321 321
330 330 330 331 331 331 331 331 331 332 332 332 331 331 331 331 332 334 336 337 335 334 332 331 330 330 329 327 329 329 329 329 326 320 319 325 331 331 333 334 334 333 331 331 330 331 330 328 328 328 329 329 328 327 325 323 321 321 323 323 319 315 314 316 317 316 316 317 315 314 314 314 314 314 313 313 313 312 311 311 312 314 317 319 319
330 331 331 331 332 332 332 332 332 332 332 333 332 332 333 332 332 333 334 335 335 336 335 334 332 331 329 327 327 326 327 328 327 325 321 319 324 328 331 333 334 333 332 332 331 331 330 330 328 328 329 329 328 327 325 323 320 320 323 323 320 316 316 319 317 316 319 320 318 317 318 317 316 316 316 316 315 313 313 311 311 314 316 316 317
332 333 333 334 334 334 334 332 331 331 332 332 332 332 332 332 333 332 333 333 334 334 334 335 335 334 332 329 327 325 325 325 324 324 324 322 323 327 329 330 331 332 332 332 331 331 331 330 329 328 328 328 328 327 325 322 320 322 324 322 320 317 316 319 317 316 320 321 320 320 320 320 319 318 318 317 317 316 315 313 312 314 315 314 315
334 334 334 334 334 333 333 332 331 331 331 332 332 332 331 331 331 332 332 333 333 333 333 334 334 334 334 333 332 331 328 327 325 323 323 323 323 326 327 327 328 329 330 331 331 331 331 331 330 329 329 328 327 327 325 321 318 323 324 321 320 317 316 318 316 317 320 321 322 322 321 320 320 320 319 318 318 318 316 315 314 315 315 314 313
335 334 334 334 333 333 333 333 333 333 332 333 333 333 332 331 331 332 332 331 332 332 333 333 333 333 333 333 333 333 332 331 330 328 325 323 322 324 325 325 326 327 329 330 330 331 331 332 330 329 329 329 327 326 325 321 316 322 324 321 319 317 316 317 315 316 320 322 322 322 322 321 321 320 320 319 318 319 318 318 316 316 315 315 312
334 334 333 333 333 333 334 334 334 333 333 333 333 333 332 332 332 332 332 332 332 332 332 333 333 332 332 332 332 332 332 332 332 331 329 328 325 324 324 323 324 326 328 330 330 330 331 331 331 330 329 329 329 327 326 322 316 319 323 322 319 318 318 315 312 316 320 322 323 323 322 321 321 321 320 320 319 320 320 319 318 317 316 315 313
334 333 333 333 333 334 333 333 334 334 332 332 333 333 333 332 332 332 332 332 332 332 332 332 333 332 332 332 332 333 332 331 331 331 331 331 328 326 326 324 323 325 327 329 331 330 331 331 331 331 330 330 330 328 327 324 316 315 319 320 318 318 319 313 312 316 319 322 323 322 322 321 321 320 321 322 320 320 321 321 320 319 317 315 313
333 333 334 333 333 334 333 333 333 333 332 331 331 331 332 332 332 332 332 331 331 332 332 333 333 332 333 333 333 333 332 331 331 331 330 330 330 329 329 326 325 327 328 329 329 330 331 331 331 332 331 331 331 330 329 326 319 313 314 316 317 320 319 313 313 317 319 322 323 323 322 320 320 321 322 323 322 320 321 321 321 319 318 316 314
334 333 333 334 334 334 333 333 333 333 331 331 330 331 330 330 331 331 331 330 331 333 333 333 333 333 333 332 332 333 333 333 331 330 330 330 330 330 331 330 330 331 331 330 330 330 331 331 331 331 332 331 331 330 330 328 323 315 311 313 316 322 321 314 315 319 319 321 323 323 322 320 320 321 323 324 323 321 321 321 321 320 320 318 317
334 333 333 334 334 334 333 332 332 331 330 330 330 330 330 329 330 330 331 331 331 333 333 333 332 332 332 332 332 333 334 333 333 332 331 330 330 330 331 331 332 332 331 331 331 331 331 331 330 331 331 331 331 330 330 329 327 320 313 312 314 321 323 316 316 323 322 320 322 323 322 320 320 321 323 324 323 322 321 321 321 320 320 320 319
333 333 333 333 333 332 330 328 328 329 329 330 330 330 330 330 329 329 329 330 331 332 333 333 332 332 332 332 332 333 333 333 333 333 332 332 331 330 331 332 332 331 331 331 331 332 331 330 330 330 330 330 330 330 330 330 328 324 316 313 315 320 323 319 318 325 325 322 323 323 322 320 319 321 323 324 323 322 321 321 320 320 320 320 320
331 331 332 332 331 329 326 326 327 328 328 329 330 330 331 330 330 330 330 329 329 330 332 332 332 331 331 331 331 332 332 332 331 332 332 333 332 331 330 331 331 332 332 332 332 332 332 331 330 330 330 330 330 329 330 330 328 326 320 315 315 319 322 320 319 324 326 325 324 324 323 320 317 319 322 323 324 322 321 319 318 319 320 320 320
328 328 329 329 328 325 325 327 328 328 328 329 330 330 330 331 331 330 330 329 328 329 331 332 332 332 331 331 331 331 331 330 331 332 332 332 333 333 332 331 330 331 332 333 332 332 332 331 331 330 330 331 331 329 330 330 328 326 323 319 316 318 320 319 318 323 326 327 325 325 324 321 317 318 321 323 323 322 320 318 317 318 320 320 320
325 325 325 325 324 323 324 326 328 328 328 329 329 329 330 330 330 330 330 329 329 330 330 331 331 331 331 331 330 331 331 331 331 332 332 331 332 333 332 331 330 330 330 331 332 331 332 331 331 331 331 331 332 330 330 330 329 327 325 323 318 317 320 318 318 322 326 327 327 326 325 322 319 317 319 321 322 321 321 319 316 317 319 319 319
322 322 322 321 321 323 324 325 327 326 326 327 327 327 328 329 329 330 330 330 330 330 330 329 330 330 330 331 331 331 331 331 331 331 332 331 331 332 331 330 330 330 329 330 331 331 331 331 331 331 331 331 331 331 331 330 330 328 326 324 319 317 320 319 318 322 326 328 327 327 326 323 320 318 318 320 321 321 321 320 316 316 319 318 318
322 321 321 321 321 322 323 324 324 324 324 325 325 326 326 327 327 328 329 330 330 330 330 329 329 330 329 330 330 329 330 331 331 332 331 331 330 331 331 330 331 331 329 329 330 330 330 331 331 331 331 331 331 331 331 331 330 330 328 325 321 317 319 320 319 321 325 328 327 327 326 323 320 319 320 320 320 319 318 318 315 316 318 317 316
322 321 321 321 321 321 321 321 321 321 321 322 322 322 322 324 326 326 327 328 329 329 330 329 329 329 329 329 329 329 330 331 331 331 331 331 331 330 331 330 331 332 331 329 328 329 330 329 330 330 330 331 330 330 331 331 331 330 329 327 324 319 319 320 319 320 324 327 327 327 327 326 322 321 322 321 320 318 312 310 311 314 317 316 313
321 321 320 320 320 319 319 319 319 320 320 319 320 320 320 320 322 323 325 326 327 328 329 329 329 329 329 330 330 330 330 330 331 331 330 330 330 330 331 331 330 331 332 330 328 327 328 328 328 329 330 330 330 330 331 331 331 331 329 329 327 321 319 320 320 320 323 326 327 327 327 327 325 322 322 322 322 319 308 304 309 313 314 313 310
320 319 319 318 318 318 317 317 317 317 317 317 318 318 318 318 319 320 321 322 323 324 325 327 328 328 329 329 329 330 329 329 330 330 329 330 330 330 330 330 330 330 331 331 330 327 326 327 328 328 328 330 330 330 330 331 331 331 330 329 329 325 320 320 321 320 321 323 326 327 327 328 327 324 323 322 323 321 310 303 306 310 311 309 306
318 317 316 316 315 315 315 315 315 315 315 315 315 316 316 316 317 318 317 318 319 319 321 323 325 325 326 327 328 329 329 329 329 329 329 329 330 329 329 329 329 329 329 330 331 330 327 326 327 326 326 328 330 330 330 330 330 331 331 330 329 328 323 320 321 321 320 321 324 326 327 328 327 326 324 323 323 322 313 304 304 306 307 307 303
315 315 314 314 314 314 314 314 314 314 314 315 314 315 315 315 315 316 316 316 316 316 317 318 319 321 322 324 325 327 327 328 328 328 328 329 329 329 328 328 328 328 328 328 330 331 329 326 327 327 326 326 328 329 329 330 330 330 331 331 329 329 326 322 321 321 320 320 322 325 327 327 327 326 326 324 323 322 315 305 303 304 304 305 303
314 314 313 314 314 314 314 313 314 313 313 314 313 313 314 313 314 314 314 315 315 316 316 316 316 317 318 318 321 323 325 327 327 327 328 328 328 328 328 329 328 328 328 328 328 330 329 327 327 328 327 325 325 325 327 329 330 330 331 331 330 329 328 324 321 322 322 320 320 324 326 327 327 326 326 325 324 323 316 307 304 304 303 304 304
313 313 313 313 313 313 313 312 312 312 312 312 312 312 312 312 312 312 313 313 314 314 315 315 316 316 316 316 317 318 319 322 325 327 327 328 328 328 328 329 329 329 328 328 328 329 329 328 328 328 327 327 325 323 324 326 327 330 331 331 330 330 329 327 323 321 323 322 320 321 324 326 326 326 326 325 324 324 319 309 304 305 304 303 304
312 312 312 312 312 312 312 311 311 311 311 311 311 311 311 311 311 311 312 312 312 313 314 314 315 316 316 317 317 316 317 317 319 323 325 326 327 328 328 328 329 328 328 329 329 329 329 329 328 328 328 328 326 325 325 325 326 329 330 330 330 330 330 329 325 322 322 324 322 320 322 324 326 326 326 326 325 324 321 312 304 305 305 302 302
311 311 311 311 311 311 310 310 310 309 309 309 309 309 309 310 310 310 310 311 311 312 312 313 314 315 316 317 317 317 318 317 317 318 320 322 325 326 327 327 328 329 328 327 328 328 329 329 328 328 328 328 328 327 328 328 328 329 330 329 330 330 330 330 328 324 322 323 324 322 321 322 325 325 325 326 325 324 323 316 306 304 305 303 302
310 310 310 310 310 309 309 308 308 308 308 308 308 308 308 308 309 309 309 309 310 311 311 312 313 314 314 315 316 316 317 318 318 318 318 320 322 324 325 326 327 328 328 328 327 328 329 329 328 328 328 328 328 328 328 328 328 329 329 329 329 329 329 329 329 326 323 323 324 324 322 321 323 325 325 326 325 324 324 321 312 305 305 305 302
309 309 309 308 308 307 307 306 306 306 306 306 306 306 306 307 307 307 308 308 308 309 310 311 312 312 312 313 314 315 315 315 316 317 318 319 320 321 322 324 325 327 327 327 328 328 328 328 328 327 328 328 328 328 328 328 328 328 328 329 329 329 329 329 329 328 325 323 324 325 324 321 321 323 325 325 326 324 324 324 319 311 306 305 304
308 307 307 307 306 305 305 305 304 304 304 304 304 305 305 305 306 306 307 307 308 308 310 310 310 311 311 312 313 313 313 313 314 315 316 317 318 319 320 321 323 325 326 326 327 327 327 327 328 327 327 327 327 328 328 328 328 328 328 328 328 329 329 329 329 328 326 324 324 325 325 323 321 322 324 325 325 325 324 324 323 317 310 306 305
306 305 305 304 304 304 303 303 303 303 303 303 303 304 304 304 305 305 306 306 307 308 309 310 310 310 310 311 312 312 311 312 313 313 314 315 316 316 317 318 320 322 324 325 326 326 326 326 327 327 327 326 326 327 328 328 328 327 327 327 328 328 329 328 329 329 327 325 325 325 325 325 323 321 322 324 325 325 324 323 324 322 316 309 305
304 304 303 303 302 302 302 302 302 302 302 302 302 303 303 303 304 305 305 306 307 308 309 309 309 309 310 310 310 310 310 311 312 312 313 314 315 315 316 316 317 319 320 322 323 324 325 326 326 327 327 327 327 327 327 328 328 327 327 327 328 328 329 328 328 329 328 327 326 326 326 325 324 323 322 322 324 324 324 324 323 323 321 314 307
302 302 302 302 301 301 301 301 301 301 301 301 301 301 302 302 304 305 305 306 307 307 308 308 308 308 308 309 309 310 310 310 311 311 312 312 313 314 315 315 316 316 317 319 320 322 323 324 325 326 327 327 327 326 327 327 327 327 327 327 328 328 329 329 329 329 329 328 327 327 326 326 325 324 323 322 322 323 324 324 323 323 323 318 310
301 301 301 300 300 300 300 300 300 300 300 300 300 301 301 301 303 304 305 306 306 307 307 307 307 307 307 307 308 308 308 308 309 309 310 311 311 312 313 314 315 316 316 317 318 319 321 323 324 325 327 328 327 326 326 327 327 327 327 327 327 328 329 329 329 329 329 328 328 328 327 326 325 324 324 323 323 323 323 324 324 323 323 322 316
300 300 300 300 299 299 299 299 299 299 299 299 299 299 300 300 301 303 304 305 305 305 306 306 306 306 306 306 306 306 306 306 306 307 308 309 309 310 311 312 313 314 315 316 317 318 319 321 323 325 326 328 328 326 325 327 327 327 327 327 327 328 328 329 329 329 329 329 329 328 328 327 326 325 324 324 324 323 323 323 323 323 323 323 321
299 299 299 299 299 299 298 298 298 298 298 298 298 299 299 299 301 302 303 304 304 304 304 304 304 305 304 304 304 305 304 304 305 306 306 307 308 309 309 310 311 312 313 315 317 317 318 319 321 324 325 326 328 327 325 326 327 327 327 327 327 327 328 328 328 329 329 329 329 328 328 327 326 326 325 325 324 324 323 323 323 323 322 323 323
298 298 298 298 298 298 298 298 298 298 298 298 298 298 298 298 300 302 303 303 303 303 303 303 303 303 303 303 303 303 303 304 304 304 304 305 305 307 308 308 310 310 312 313 315 316 317 318 319 321 323 325 327 327 326 326 327 327 326 326 326 327 327 328 328 328 329 329 329 329 329 328 327 326 326 325 325 324 324 323 322 322 322 322 323
297 298 298 298 298 298 297 297 297 297 297 297 297 297 298 298 299 301 302 302 302 302 302 302 302 302 302 302 302 302 302 303 304 304 304 304 304 305 306 307 309 310 312 313 313 315 317 318 319 320 321 324 326 328 327 325 326 327 326 326 326 326 326 326 327 328 328 328 329 328 329 329 328 327 326 326 326 325 324 323 322 322 322 322 322
297 297 297 297 297 297 297 297 297 297 296 297 297 297 297 297 298 301 301 301 301 301 301 301 301 301 301 300 301 301 302 303 304 304 305 305 305 305 306 307 308 309 311 312 313 314 316 318 319 319 320 323 325 328 327 325 326 327 326 325 325 325 326 326 326 327 328 328 328 328 329 329 329 328 327 326 326 326 325 324 323 322 322 322 322
297 297 297 297 297 296 296 296 296 296 296 296 296 296 297 297 297 300 301 301 301 301 300 300 300 300 300 300 300 300 301 302 303 304 304 305 305 306 306 307 308 308 308 309 312 313 314 317 318 319 320 321 324 326 327 326 326 327 327 326 325 325 325 326 326 326 327 327 328 328 328 328 328 328 328 326 326 326 326 325 324 323 323 322 322
296 296 296 296 296 296 296 296 295 295 295 296 296 296 297 296 297 299 300 301 300 300 300 300 300 300 299 299 300 300 300 301 301 302 303 304 305 306 306 307 309 309 307 308 310 311 312 314 316 318 319 320 322 324 327 327 326 326 327 326 326 325 324 325 326 326 326 327 328 327 328 328 328 328 328 327 326 326 326 325 324 324 323 323 322
296 296 296 296 295 295 295 295 295 295 295 295 296 296 296 296 296 299 300 300 300 299 299 300 300 299 299 299 299 300 300 300 300 301 301 303 304 305 306 306 308 308 307 307 309 311 311 312 314 317 319 320 320 323 325 327 327 326 326 327 326 325 325 325 325 325 324 325 326 327 327 327 328 327 327 328 327 326 326 326 325 324 324 324 323
295 295 295 295 295 295 295 295 295 295 295 295 295 295 296 296 297 299 300 300 299 299 299 299 299 299 299 298 299 300 300 300 300 300 301 302 302 303 304 305 306 307 306 306 307 310 311 311 312 315 318 319 320 322 323 324 326 326 325 326 326 325 325 325 324 324 322 322 324 326 326 327 327 327 327 327 328 327 326 326 326 325 324 324 324
295 295 295 295 294 294 294 294 294 295 295 295 295 295 296 296 297 299 300 300 299 299 299 299 299 298 298 298 298 299 300 300 300 300 301 301 302 302 303 304 305 305 305 305 306 308 309 311 312 314 316 318 319 321 323 324 325 326 325 325 325 325 325 325 324 324 324 323 324 325 325 326 326 326 326 327 327 328 327 327 326 326 325 324 324
294 294 294 294 294 294 294 294 295 295 294 295 295 295 296 296 297 299 299 299 299 299 299 298 299 298 298 297 298 299 299 299 299 300 300 301 301 302 302 303 303 304 304 304 305 306 307 309 311 313 314 316 318 320 322 323 325 325 325 325 325 325 325 325 324 325 325 325 324 323 322 323 323 324 325 325 326 327 327 327 327 326 326 325 324
294 294 294 294 294 294 294 294 295 295 295 295 295 295 295 296 297 298 299 299 299 299 299 298 298 298 298 297 298 299 299 299 299 300 300 301 301 301 301 302 303 304 304 304 304 305 306 307 309 311 311 313 315 318 320 323 324 324 325 325 325 325 324 324 324 324 324 324 324 322 321 320 319 321 323 325 325 325 326 327 327 327 326 326 325
294 294 294 294 294 294 294 294 295 295 295 295 295 295 295 295 296 297 298 299 299 299 299 299 298 298 298 298 298 298 299 299 299 300 300 301 301 301 301 301 302 303 303 303 302 304 306 307 308 309 309 311 312 315 317 320 321 322 323 324 324 324 324 324 324 324 323 323 323 323 323 322 320 320 323 324 323 323 324 325 325 327 327 326 326
294 294 294 294 293 294 294 294 294 295 295 295 295 295 295 295 296 297 298 298 299 298 298 298 298 298 298 298 298 298 299 299 299 299 300 300 301 301 300 300 301 301 302 302 302 303 305 306 307 308 308 309 311 313 314 316 319 321 322 323 323 323 323 323 323 323 322 323 323 323 323 323 322 322 323 324 323 322 322 322 322 324 325 326 326
Wind_Speed
3 3 3 4 4 4 4 3 3 5 5 5 5 6 7 9 10 9 9 9 11 13 13 13 14 15 14 14 12 12 11 10 10 10 10 9 10 11 9 8 8 7 8 9 7 7 8 8 7 7 8 9 9 10 9 9 10 10 9 10 10 10 9 9 9 7 6 5 5 6 5 5 7 8 8 9 9 10 13 14 15 14 13 11 11
2 2 2 3 3 3 3 2 3 4 4 4 5 6 6 8 9 8 8 9 8 11 13 14 15 15 15 16 15 15 14 12 11 11 12 12 12 14 13 11 10 10 9 9 9 7 7 8 8 6 7 9 9 9 8 8 9 9 9 10 11 11 11 9 8 7 6 5 5 6 5 6 7 8 9 10 10 11 13 15 16 15 13 12 11
2 2 2 2 2 3 3 3 3 4 4 5 7 7 8 8 8 9 10 10 9 10 12 12 13 14 14 15 14 16 16 14 13 12 13 13 13 15 16 14 13 13 11 11 11 9 8 8 8 7 7 7 9 9 8 8 8 9 9 10 10 10 10 9 8 7 5 5 5 6 5 6 7 8 9 10 11 11 12 14 17 16 14 14 13
1 1 1 1 2 2 2 2 3 5 5 6 8 8 9 9 9 10 11 12 13 13 13 12 13 14 14 14 13 16 17 17 16 16 16 15 14 15 17 18 16 15 15 13 12 11 9 8 8 8 7 7 8 9 10 9 9 9 8 8 8 8 9 8 7 6 5 5 6 6 6 7 8 8 9 10 10 11 11 13 17 17 16 15 14
0 1 1 1 2 2 3 3 3 4 6 7 8 8 9 9 9 10 10 11 13 14 15 15 15 15 16 17 17 19 19 19 19 20 19 16 16 16 16 18 18 17 17 16 14 13 12 10 9 8 8 9 9 9 9 9 10 9 8 8 7 8 8 7 7 6 6 6 6 7 7 8 8 8 9 9 10 10 11 12 15 17 16 15 14
1 1 2 3 3 4 4 4 4 5 6 7 8 8 9 10 10 10 9 10 12 14 16 16 17 17 19 20 21 23 24 23 24 25 24 20 20 21 19 17 17 18 18 17 15 14 14 12 11 9 9 11 10 9 9 9 11 10 10 10 8 8 8 7 7 7 7 7 6 7 7 8 8 8 9 9 10 10 10 12 14 16 16 14 13
0 2 3 4 4 5 5 5 6 6 6 7 8 8 8 10 11 11 11 11 11 13 15 16 17 19 21 22 24 26 27 27 28 29 28 24 24 25 23 20 18 19 18 18 18 17 16 15 13 11 11 11 11 10 9 10 11 10 11 11 9 9 8 8 8 8 9 7 7 7 7 8 8 8 8 9 10 10 10 12 14 14 14 14 12
2 3 3 4 4 4 5 6 6 6 6 6 7 8 8 10 11 12 12 13 14 14 14 14 16 18 20 23 27 28 28 29 31 30 29 27 26 26 24 23 21 21 21 20 21 20 18 17 15 13 12 12 12 12 10 10 11 11 12 12 10 10 10 10 9 10 11 9 8 8 8 8 8 8 9 10 10 11 11 12 14 13 13 13 13
2 2 3 3 4 4 5 6 6 6 7 7 8 8 9 10 10 11 12 13 14 15 15 16 16 17 17 20 24 25 25 28 29 30 31 29 28 26 24 23 23 23 23 22 22 21 19 18 16 14 14 13 13 13 11 11 11 11 12 12 11 11 12 11 11 12 12 10 10 9 9 9 8 9 9 10 11 11 12 12 13 13 12 13 13
2 3 3 3 4 4 5 6 7 7 7 8 8 9 10 11 11 11 11 12 13 14 14 15 17 17 18 18 20 21 21 22 23 25 29 29 29 28 26 24 23 24 25 23 23 22 20 20 18 16 16 15 15 14 13 12 12 13 14 13 12 12 12 12 13 14 12 12 12 11 11 10 10 10 10 10 11 11 12 12 13 13 13 13 13
3 3 3 3 4 5 6 7 8 9 9 9 9 10 11 11 11 11 11 12 12 13 14 15 16 18 19 20 20 20 21 20 20 21 24 27 27 27 27 26 24 25 25 24 25 25 23 22 19 17 17 16 16 15 14 13 13 14 14 14 13 12 12 13 15 16 14 14 13 13 13 12 12 12 10 10 11 11 12 12 12 13 13 13 14
3 3 3 4 4 5 7 8 9 9 10 10 10 10 11 11 11 11 11 11 12 13 14 15 16 18 19 20 19 19 20 20 20 21 21 23 23 24 26 27 26 26 26 25 26 26 26 25 20 16 16 15 15 14 14 14 14 14 14 15 14 13 13 14 16 16 16 16 15 15 14 13 14 13 11 10 10 11 12 11 11 12 13 14 15
2 3 3 4 5 6 8 9 9 10 11 11 11 11 11 12 12 12 12 12 12 11 13 14 15 17 17 17 17 18 20 19 20 21 21 21 21 22 23 26 27 27 27 27 27 27 27 27 22 18 17 16 16 15 15 16 16 15 15 15 14 14 14 15 17 17 16 17 16 16 15 14 15 14 12 10 9 10 12 12 11 12 13 15 16
2 3 3 4 5 7 8 9 9 10 11 11 11 12 12 13 12 12 12 13 13 11 11 12 13 15 16 18 18 16 17 18 19 19 19 20 20 21 21 23 24 24 25 25 26 27 28 28 25 22 20 18 17 17 17 17 18 17 16 16 15 15 16 16 18 17 16 17 17 17 15 14 16 15 13 13 11 10 12 13 13 12 13 15 17
3 4 4 4 5 6 7 8 9 10 11 11 11 12 12 13 12 13 13 12 11 10 10 10 11 13 14 17 16 15 15 15 16 16 14 15 17 18 20 22 22 23 23 24 24 25 27 29 27 26 24 21 19 19 18 17 17 17 16 17 17 17 18 18 19 17 15 15 16 17 14 14 17 17 15 15 14 12 13 14 13 13 14 16 17
6 7 8 7 7 7 7 8 8 9 9 9 10 11 11 13 13 14 13 13 11 10 9 10 11 11 12 13 14 15 14 11 13 13 10 13 15 15 17 18 19 21 22 23 23 23 26 29 28 27 27 25 22 20 18 15 16 17 16 18 18 18 20 19 20 20 18 16 16 17 15 13 17 18 16 17 16 15 15 14 14 15 15 16 18
6 7 8 9 8 8 9 8 6 6 7 7 8 10 10 12 13 13 12 13 13 11 10 10 10 11 12 13 13 13 14 15 16 13 9 11 13 13 15 17 17 17 20 22 22 21 24 27 27 28 29 28 25 22 21 17 15 18 18 19 19 19 21 21 22 23 21 19 18 19 17 13 16 19 18 18 17 16 16 15 14 15 16 17 18
5 6 7 8 8 8 8 7 6 6 6 6 6 8 9 10 12 12 12 13 14 12 11 10 11 11 12 13 13 13 18 20 18 13 11 11 12 13 15 16 16 17 19 20 21 22 24 25 26 28 29 30 27 24 23 20 18 19 18 19 20 20 21 21 24 24 22 23 22 20 19 15 15 18 19 18 18 17 17 16 15 17 18 18 18
6 6 7 7 7 8 8 7 7 7 7 6 5 5 6 8 9 10 12 13 12 13 12 11 10 11 11 13 15 15 17 18 15 14 15 13 12 13 15 16 17 18 19 20 22 23 26 28 28 28 29 31 29 26 26 23 21 21 20 20 20 20 20 21 24 26 24 25 24 22 21 17 15 18 19 19 19 19 19 16 16 19 20 19 19
7 6 6 7 7 7 8 8 7 8 8 7 6 6 5 7 8 8 10 11 11 12 14 13 12 12 11 12 14 14 14 15 15 14 15 15 14 14 15 17 17 17 19 20 22 23 26 28 29 29 29 30 30 29 29 26 23 22 22 23 22 20 21 21 24 27 26 25 26 25 23 19 17 18 19 20 21 20 20 17 17 21 22 21 21
6 6 6 6 6 7 7 8 8 9 9 8 7 7 7 7 8 8 9 10 10 12 13 14 14 14 14 14 15 16 14 14 14 14 15 17 17 15 15 16 15 17 18 19 20 23 24 24 26 28 28 29 29 28 29 29 27 23 21 24 24 22 22 22 24 27 28 27 28 28 26 20 17 19 20 21 22 21 20 19 18 22 23 22 23
5 5 5 6 6 7 8 9 9 9 10 10 10 10 10 8 8 8 8 9 9 10 13 14 15 15 15 16 17 17 15 14 13 14 14 16 18 19 17 16 17 18 19 19 19 20 22 23 24 26 27 28 28 28 30 31 31 27 23 24 25 24 24 23 24 27 30 30 30 29 28 23 19 20 21 21 22 21 20 20 20 23 24 23 23
5 6 6 7 7 8 9 10 10 10 11 11 11 11 11 10 9 9 8 9 9 10 12 12 13 15 15 15 16 16 16 16 15 15 16 16 19 21 19 17 19 20 19 20 20 19 21 23 24 24 25 27 28 29 31 31 32 30 27 27 26 25 26 25 25 28 31 32 31 30 29 27 22 21 21 21 22 21 19 20 22 24 26 24 23
6 7 8 8 9 10 11 11 11 11 11 11 11 11 11 11 10 9 9 9 10 12 13 11 11 12 13 14 15 16 17 17 17 17 18 18 20 23 23 19 20 21 18 18 21 22 23 24 25 25 25 27 28 30 31 32 34 33 32 32 30 26 27 27 27 29 31 33 32 31 30 30 27 23 22 22 23 21 19 21 23 25 27 25 24
7 8 9 9 10 10 11 12 12 12 12 13 12 12 12 12 10 10 11 11 12 13 14 13 13 13 13 14 14 15 17 17 18 20 20 20 21 24 25 22 22 24 22 19 21 24 26 25 26 27 26 26 26 28 30 32 35 35 34 36 34 29 28 30 29 30 32 33 34 32 31 31 30 27 24 24 24 22 20 22 24 25 27 27 26
8 9 9 9 10 10 11 12 12 13 13 13 13 13 13 13 11 12 12 12 12 13 14 14 15 16 16 16 14 15 16 16 19 21 21 22 22 23 24 24 24 25 26 23 21 23 27 26 26 27 27 26 26 27 27 29 32 35 35 37 36 32 31 32 32 32 32 33 34 34 34 33 32 30 27 26 26 24 21 23 24 24 26 28 28
8 9 10 10 10 11 12 12 12 13 13 13 13 13 13 13 13 13 13 13 13 13 13 14 15 15 16 17 17 17 17 16 18 20 21 22 23 23 23 24 25 24 25 25 23 25 29 28 25 26 27 27 28 29 29 29 31 33 34 36 38 36 33 34 35 34 33 33 35 36 36 36 34 32 30 29 29 26 23 23 23 23 24 27 29
9 10 10 11 11 11 12 13 13 13 14 13 13 13 13 13 13 14 14 14 14 14 14 14 14 15 16 16 17 18 18 18 19 18 19 20 22 23 22 23 25 25 26 26 25 26 27 26 26 26 26 27 29 31 32 32 32 32 34 36 39 40 37 36 37 37 36 35 36 37 37 37 36 34 33 32 31 28 25 24 24 23 23 25 28
9 10 10 11 11 11 12 13 14 14 14 14 14 13 14 14 14 15 15 15 15 15 15 15 15 15 16 16 17 17 17 18 20 20 21 21 20 22 22 23 24 25 27 28 28 28 25 26 29 29 28 27 28 31 32 33 33 33 34 36 38 41 41 39 39 39 38 37 37 37 38 38 38 37 35 34 33 31 28 26 25 25 24 23 27
9 10 10 10 11 12 13 14 15 15 15 15 15 14 15 15 16 16 17 17 17 16 16 16 17 16 16 16 17 17 16 17 19 19 22 21 20 22 23 24 23 24 26 28 32 31 26 27 31 30 29 27 26 28 31 33 34 34 34 34 37 40 41 41 41 40 41 39 38 39 39 39 39 39 37 36 36 33 30 29 27 27 26 24 26
9 9 10 11 12 14 14 15 15 16 16 17 17 16 17 17 18 18 17 18 17 17 17 17 17 17 18 17 17 17 17 18 19 19 20 19 19 21 23 24 24 24 26 28 31 32 27 27 31 30 28 27 26 27 30 31 32 33 33 34 38 40 39 41 42 43 43 42 40 40 40 40 40 40 39 38 38 36 33 31 29 28 27 26 26
10 11 11 12 14 15 15 16 16 17 18 18 18 18 18 18 19 19 19 19 18 18 17 16 16 17 18 18 16 15 16 17 18 19 19 18 19 20 21 24 24 24 25 26 28 31 29 27 30 31 29 27 28 28 29 30 30 31 32 34 38 39 38 40 42 44 45 43 42 41 41 41 41 41 41 40 39 38 36 34 32 30 29 27 27
12 13 13 15 15 16 16 17 18 18 19 19 19 19 19 19 19 19 20 20 19 17 15 14 15 16 16 16 15 14 16 18 19 20 19 19 19 20 22 24 26 26 25 23 26 31 32 29 29 31 31 29 29 28 27 29 30 31 32 34 36 37 37 39 41 44 45 44 43 42 42 42 42 42 43 42 41 41 39 37 35 33 31 29 28
14 14 15 16 16 17 18 19 19 20 20 20 20 20 19 20 20 21 21 20 19 17 14 14 15 15 15 15 15 17 20 21 22 21 21 21 22 23 24 25 28 29 28 26 28 30 32 31 29 29 30 31 30 28 27 27 28 29 31 34 36 37 37 37 39 42 45 44 44 43 43 44 44 43 43 44 43 42 41 39 37 35 33 31 30
15 15 16 17 18 19 20 20 20 21 21 21 22 22 22 22 21 21 21 20 19 16 14 15 16 16 16 18 18 19 22 23 23 23 23 23 23 24 25 25 27 29 29 30 31 31 32 32 29 28 29 30 30 29 27 27 27 29 31 33 35 37 36 34 36 40 44 45 46 45 44 45 45 45 44 44 45 44 43 41 39 38 36 34 32
16 17 18 19 19 20 20 21 21 21 22 23 23 23 24 23 21 20 20 18 16 15 15 15 16 16 17 18 19 20 21 22 23 24 25 26 26 25 25 25 26 28 29 30 32 33 33 33 31 29 28 29 31 29 27 27 27 29 30 31 33 36 36 34 33 36 40 43 46 47 46 46 47 47 47 46 45 45 45 44 41 40 39 36 34
17 18 19 19 20 21 21 21 22 23 23 24 24 24 24 24 21 19 18 16 14 14 15 15 16 16 16 17 17 18 20 22 23 25 26 28 28 28 28 28 28 28 28 29 30 32 34 36 36 32 28 27 29 30 27 25 26 27 29 30 32 34 35 34 34 34 36 40 44 47 47 47 48 48 48 47 46 46 46 46 44 42 41 39 36
19 19 20 20 21 22 22 22 22 24 24 25 26 25 25 25 21 17 16 15 14 15 15 16 16 16 16 16 16 17 20 23 24 26 27 28 29 30 31 31 30 30 30 30 29 30 32 36 38 36 30 26 27 29 27 25 25 26 28 30 32 33 33 33 33 34 35 37 42 46 49 50 50 50 49 49 49 48 47 48 46 44 42 41 39
20 21 21 22 23 23 23 23 23 24 25 25 26 26 27 26 21 15 15 15 14 15 15 16 16 16 16 16 16 18 20 23 26 27 28 29 29 30 31 33 33 33 33 32 31 30 31 33 36 37 34 27 26 28 27 24 25 26 26 29 32 34 34 33 33 34 35 37 39 45 49 50 50 51 50 50 50 50 49 49 48 47 45 43 41
21 22 22 23 23 23 23 23 24 25 26 27 28 28 29 27 21 15 14 15 15 15 16 17 16 15 16 16 17 20 21 24 26 28 29 32 33 32 31 31 33 34 35 34 32 32 32 33 34 36 36 32 27 26 26 23 25 27 25 27 31 33 34 34 34 34 35 37 41 45 47 47 49 51 52 51 51 51 51 50 49 48 47 45 43
22 22 22 22 22 23 23 23 24 25 26 28 29 29 28 27 22 16 14 15 15 16 17 18 17 16 17 17 18 21 24 26 27 27 28 31 34 35 33 31 31 32 33 34 32 32 33 35 35 34 35 34 26 24 26 26 26 27 26 27 31 31 32 33 34 34 34 36 41 46 47 47 48 51 53 54 53 53 52 51 50 50 49 47 45
22 22 22 22 22 23 23 23 24 25 26 26 26 26 25 25 23 17 14 15 16 16 17 18 18 18 19 19 20 23 27 29 28 28 28 29 31 33 32 31 29 27 28 31 31 31 31 34 36 34 33 34 28 25 28 29 27 27 26 27 30 30 30 31 33 36 36 34 38 42 44 45 47 49 54 56 55 54 53 53 53 52 51 50 48
22 21 21 22 22 23 23 24 24 25 25 25 25 25 25 25 24 18 14 15 16 17 17 18 19 19 21 23 24 25 30 34 34 32 31 30 30 30 30 28 26 23 24 28 31 32 31 31 35 34 32 34 31 27 28 29 26 25 25 27 29 30 31 31 33 37 38 36 37 39 41 44 45 47 52 56 57 56 56 55 55 54 53 52 50
21 21 21 22 22 23 23 24 24 24 24 24 25 26 25 25 25 21 15 15 16 18 18 18 19 20 22 28 30 30 33 38 39 39 38 36 33 31 30 29 26 22 22 25 27 29 30 29 31 33 33 34 33 28 25 26 26 24 24 25 27 29 31 32 33 36 38 36 36 39 42 44 45 46 49 53 56 57 57 56 55 55 55 54 53
20 20 21 22 22 22 22 23 23 23 24 25 25 27 26 26 27 23 17 16 16 17 18 18 19 21 24 30 34 34 36 37 38 41 43 42 39 36 34 32 29 24 21 23 24 25 27 28 28 31 32 33 34 31 26 25 26 25 24 25 26 27 30 32 32 34 35 33 34 39 44 44 44 46 48 49 52 56 56 56 56 56 55 55 55
20 20 21 21 21 21 21 23 23 23 24 25 26 27 27 28 29 22 17 17 17 17 18 18 19 22 25 30 35 36 36 36 37 39 42 42 42 40 38 35 32 27 23 24 25 25 26 28 28 28 28 28 31 33 29 25 25 26 25 25 25 25 28 30 31 32 34 34 33 36 42 44 44 45 46 45 48 53 55 55 56 56 56 56 56
19 19 19 19 20 20 21 22 23 23 25 25 27 28 28 30 31 22 16 17 18 17 18 19 20 21 24 31 36 36 35 35 35 36 38 39 39 38 37 36 33 29 25 25 27 27 26 27 27 26 25 25 28 31 31 27 25 26 25 23 22 22 23 25 27 29 32 34 32 30 33 37 38 39 39 40 44 50 54 54 55 56 57 56 56
19 18 18 19 19 19 20 21 22 23 24 25 27 29 29 31 30 22 16 18 19 19 19 20 20 20 24 32 37 36 35 34 33 33 34 35 35 35 35 33 32 29 27 25 25 25 25 26 26 23 21 22 25 27 28 26 26 28 26 23 21 20 21 24 25 27 31 33 31 29 30 31 31 31 32 33 38 44 50 54 55 55 56 57 57
18 18 18 18 19 19 20 21 22 23 25 26 27 29 30 32 31 24 18 18 20 20 20 21 20 19 24 32 36 36 35 34 33 33 32 32 32 33 33 31 30 29 27 27 26 23 21 20 22 19 15 15 18 22 24 24 25 28 27 25 23 21 22 24 26 29 31 32 32 31 31 33 33 32 30 31 35 39 45 51 54 54 55 57 57
18 18 18 18 19 20 20 22 22 23 24 26 27 29 30 31 32 28 21 18 21 22 22 22 21 19 21 29 34 35 35 35 34 34 33 32 31 32 32 31 30 28 27 28 27 23 18 14 14 13 8 7 8 13 18 21 23 24 23 22 22 21 21 22 25 27 28 29 30 30 31 33 35 34 32 30 33 37 42 47 51 53 55 56 57
18 18 18 18 19 20 21 22 23 23 25 26 27 29 29 31 33 30 21 17 20 24 23 23 23 21 20 25 31 34 34 35 36 35 34 33 31 30 31 32 32 30 29 29 29 25 20 14 9 7 6 5 4 1 4 9 14 17 18 19 20 20 19 20 22 24 23 24 26 26 28 31 33 33 33 31 30 34 39 43 47 51 54 57 59
Wind_Direction
183 202 203 199 199 202 216 236 245 252 257 253 249 246 245 246 248 251 257 257 251 251 245 241 255 260 254 251 254 259 257 255 261 267 271 273 274 279 285 289 296 305 312 316 314 311 315 312 301 303 314 306 287 269 258 249 252 255 248 252 255 244 242 254 266 271 275 272 243 225 215 202 185 176 181 181 178 177 174 172 168 164 159 155 153
185 214 227 213 204 210 225 241 256 260 263 263 264 265 261 257 256 252 254 258 254 255 252 245 251 262 267 261 254 259 259 253 258 265 270 273 273 277 281 281 286 293 298 304 304 301 300 303 293 283 302 309 298 277 262 251 248 253 251 252 253 246 244 248 259 266 263 257 234 215 208 195 180 173 178 180 177 176 176 175 171 168 165 161 161
213 241 247 249 238 234 246 253 259 264 261 258 262 266 266 264 262 257 253 254 253 254 256 251 247 251 262 264 256 256 256 250 255 265 270 272 273 277 280 277 279 284 288 291 294 294 288 293 290 279 284 294 299 292 281 267 251 255 256 252 251 246 243 240 247 257 250 242 225 206 198 186 174 168 170 174 177 177 177 177 173 173 172 170 171
247 262 268 289 293 275 272 269 268 274 272 266 265 266 267 270 269 267 264 261 256 256 259 257 251 248 250 254 253 255 255 248 250 262 270 273 271 273 277 279 277 276 280 283 285 288 285 280 276 275 273 267 277 286 287 275 256 259 257 247 246 242 238 230 232 243 231 221 211 198 187 177 171 165 164 168 174 177 177 176 175 177 178 179 181
155 31 6 353 329 306 298 290 282 280 281 278 275 274 275 276 274 272 271 267 263 261 260 257 256 252 248 248 250 255 256 252 253 259 265 269 270 269 270 275 276 273 275 276 277 283 284 276 270 271 262 257 263 270 279 272 260 260 252 247 245 235 232 222 223 226 209 202 198 190 180 172 167 162 163 164 164 166 170 172 175 179 180 183 188
123 16 345 330 316 308 307 300 291 284 286 289 287 286 286 284 278 272 266 265 266 265 261 258 258 255 253 253 253 256 259 259 259 259 262 266 271 271 266 264 267 268 271 272 274 277 280 277 272 263 249 252 259 261 267 266 266 262 249 253 249 230 224 217 219 209 192 191 189 183 176 171 165 159 160 160 159 159 163 167 171 175 179 183 186
351 340 326 325 321 316 314 304 298 294 292 290 288 289 290 288 285 282 277 271 266 265 266 264 262 258 257 256 254 257 261 263 262 261 262 263 268 272 268 262 260 262 264 268 274 275 275 274 271 262 247 248 253 257 262 259 264 261 250 254 246 225 215 215 217 196 183 185 182 175 173 174 170 163 159 156 157 158 159 164 167 171 175 179 180
350 345 334 329 324 320 313 304 305 306 300 294 295 296 290 287 289 288 286 283 278 276 274 269 266 264 260 258 258 259 261 262 263 263 262 259 262 267 266 263 261 262 262 263 270 275 275 270 267 263 252 249 248 252 259 255 258 256 252 253 238 221 211 212 214 192 182 183 179 177 179 183 181 172 162 156 153 155 158 161 165 167 169 172 174
348 340 334 324 323 323 316 313 318 318 314 313 311 307 301 296 292 289 286 284 284 285 283 277 274 272 267 263 263 263 262 262 263 263 262 258 257 260 263 263 262 262 263 262 263 266 271 270 264 259 257 254 249 252 259 258 255 247 248 250 235 222 214 210 206 189 182 183 181 183 186 191 193 177 164 159 155 155 159 161 164 165 165 167 169
340 340 344 333 334 335 327 326 326 321 319 320 317 313 310 306 301 296 293 288 285 284 284 282 281 279 275 272 269 267 265 264 266 262 259 258 255 255 257 260 261 260 261 261 259 257 261 266 263 255 254 254 250 252 256 258 254 243 244 247 234 225 217 207 198 186 183 187 185 188 192 195 193 181 171 165 161 159 160 162 163 165 167 166 164
333 339 345 339 339 331 322 323 322 321 322 322 319 315 312 309 306 302 298 294 290 286 284 282 281 281 278 278 275 272 270 268 267 262 257 257 256 255 255 254 256 258 259 257 257 256 254 257 258 253 254 256 253 252 250 253 252 241 238 238 230 225 217 204 195 187 185 190 190 192 196 200 194 183 178 168 162 164 164 164 165 166 169 167 164
340 336 333 332 329 320 316 320 320 319 322 321 318 316 313 310 308 305 301 298 295 293 291 287 284 284 282 282 278 273 274 270 267 265 261 259 257 257 255 251 251 255 257 254 253 255 253 253 251 247 251 255 255 253 250 249 248 241 235 232 228 225 218 204 195 190 187 189 193 197 201 206 196 182 179 175 168 169 168 167 165 165 168 167 163
330 317 315 322 321 316 318 322 321 317 319 321 318 317 314 310 309 307 305 302 300 298 296 293 290 290 289 288 284 278 277 274 268 265 264 262 260 259 255 249 251 253 254 253 251 251 250 250 247 238 239 243 248 252 251 248 246 244 240 236 228 222 217 202 192 191 190 189 194 200 205 207 193 178 178 182 182 176 171 172 168 164 166 165 162
311 296 301 317 315 315 320 321 319 316 319 322 319 317 314 312 310 306 304 304 305 302 296 296 294 293 293 292 292 286 280 277 274 270 266 264 261 260 257 252 252 252 252 252 250 248 246 247 245 238 235 233 238 248 252 249 244 240 241 239 227 218 215 199 189 192 192 192 196 201 207 207 191 178 179 185 191 188 175 175 175 168 165 163 161
283 282 279 287 298 306 315 315 315 317 320 321 318 317 315 313 309 303 305 305 306 305 297 296 296 297 297 295 298 298 287 280 279 275 271 272 266 259 258 255 254 253 254 253 250 246 242 244 244 242 241 237 234 239 246 249 245 237 232 234 227 216 214 202 191 193 197 201 201 203 209 206 193 181 181 187 194 197 186 179 179 174 168 164 161
286 284 278 281 292 302 308 306 310 313 314 316 316 316 314 311 309 306 307 306 306 306 300 297 297 298 296 292 297 299 291 289 293 289 283 284 280 268 261 258 255 254 253 251 250 247 243 243 242 242 244 242 236 233 234 240 248 244 232 229 227 216 214 208 194 192 200 207 203 205 211 207 196 185 183 191 194 198 194 185 183 179 174 168 163
297 294 289 291 297 307 315 316 319 314 307 313 315 313 312 311 312 312 309 306 305 307 304 300 295 290 288 289 294 293 293 304 312 306 289 281 282 280 275 268 262 256 253 250 247 246 245 243 240 241 244 244 239 235 233 228 236 246 236 228 227 220 217 210 197 192 198 207 206 208 212 208 200 191 188 194 196 199 197 190 189 184 178 172 166
320 311 300 297 305 316 328 333 336 329 322 325 316 311 315 315 314 312 309 308 308 309 306 301 298 294 289 290 289 287 293 304 310 307 296 286 277 276 278 278 274 264 256 252 248 245 246 246 242 241 242 242 239 235 234 227 223 232 231 227 226 222 222 212 199 193 197 206 208 208 210 208 206 198 194 197 198 202 200 194 193 188 182 178 171
329 324 311 307 319 331 338 341 344 339 336 338 324 314 316 312 312 313 311 312 311 307 305 302 301 299 294 291 290 288 292 295 296 298 300 294 278 273 277 280 279 272 265 259 256 252 250 250 246 243 242 242 240 234 233 230 225 227 227 229 228 222 224 217 201 194 197 207 208 207 209 210 209 204 201 201 201 205 203 197 195 190 186 182 177
327 328 324 326 335 337 337 340 339 332 331 335 333 329 317 304 303 306 311 314 311 304 306 308 302 297 294 292 292 292 290 288 286 287 288 288 284 280 283 285 278 276 276 268 262 258 254 252 249 247 246 243 240 237 237 233 228 229 228 230 231 226 225 221 209 198 196 206 210 207 209 210 209 207 206 206 204 207 206 203 199 193 189 187 182
330 330 334 341 345 337 330 329 327 322 319 320 322 319 312 309 306 301 303 309 309 304 303 305 303 298 297 294 293 293 291 288 285 282 279 282 285 282 285 289 280 277 281 275 267 262 258 256 253 252 249 244 239 237 238 236 232 230 229 231 231 227 226 222 215 205 196 203 211 209 208 210 210 207 207 208 206 208 210 209 204 195 193 190 187
340 343 347 353 349 338 330 329 329 326 323 322 318 313 308 308 309 302 296 296 301 303 300 303 304 302 302 299 297 297 294 289 286 284 282 281 284 285 286 286 281 278 280 279 275 267 262 260 258 256 253 248 243 238 237 239 238 233 230 235 232 225 225 222 218 209 200 203 209 209 208 211 211 207 206 207 206 208 213 213 205 197 196 192 188
354 353 352 352 342 336 335 334 334 331 329 330 326 322 316 310 305 300 300 296 290 289 289 295 300 302 305 302 299 298 293 290 288 285 283 281 282 284 285 285 283 279 278 280 278 272 269 265 260 258 255 251 247 244 242 240 241 237 230 236 237 226 223 223 218 211 206 206 206 206 209 212 211 207 207 207 206 208 211 210 203 198 199 195 190
0 357 354 353 344 341 341 337 335 333 331 332 332 332 328 325 319 310 309 302 289 281 276 279 285 291 297 294 293 296 294 292 290 287 284 283 282 282 282 285 284 281 279 278 276 274 274 270 266 262 257 253 250 250 250 245 243 240 233 237 241 232 224 223 219 213 211 211 207 204 208 212 211 208 207 206 207 210 209 205 200 197 200 199 196
7 4 2 2 355 352 351 347 344 343 342 344 346 345 342 341 338 328 324 317 306 295 285 283 282 281 285 286 286 287 289 292 291 290 290 288 284 282 284 286 284 284 283 278 275 275 275 271 269 266 260 256 252 253 255 251 245 242 238 238 242 237 227 223 221 216 214 214 211 207 207 210 210 209 209 208 209 212 210 206 201 198 201 201 199
18 15 15 14 9 5 3 2 359 357 359 359 358 356 353 352 348 343 341 335 327 316 305 297 291 286 283 284 284 276 276 284 288 289 291 291 287 285 288 290 287 286 285 282 275 271 275 275 270 266 263 258 255 256 257 251 244 242 240 239 241 238 230 224 223 219 216 216 214 210 207 208 209 210 210 209 212 215 211 208 206 202 203 203 201
30 26 24 22 19 14 10 10 8 7 6 3 2 0 356 355 352 349 348 345 341 334 325 317 309 302 293 288 285 275 268 268 278 287 289 288 288 287 289 290 289 287 285 285 279 270 276 282 276 267 263 260 260 263 263 257 251 246 242 241 241 240 233 225 223 222 219 217 216 213 211 209 209 210 210 210 212 216 213 209 209 208 207 205 203
36 30 27 24 21 16 13 11 9 8 5 1 0 358 354 354 351 348 346 345 343 339 335 331 324 319 313 306 297 289 280 268 267 279 286 287 288 287 285 283 284 287 288 288 284 277 280 286 283 277 270 263 260 264 267 266 261 251 244 243 242 240 236 228 224 223 221 219 217 215 214 212 210 210 211 211 212 214 213 210 209 210 212 207 204
39 32 29 25 19 15 13 10 8 6 4 0 359 357 356 357 354 349 347 346 343 339 337 333 330 326 322 319 311 306 302 289 276 273 275 283 288 285 282 280 278 281 286 288 285 283 284 284 284 284 280 269 260 262 266 266 266 256 244 241 242 240 237 230 225 223 223 221 218 216 215 214 213 212 212 213 213 213 213 212 208 209 213 209 204
39 33 28 20 15 16 15 11 8 6 3 2 1 359 1 2 359 356 353 351 348 344 340 334 331 329 326 324 320 314 310 303 296 284 277 282 287 286 284 282 278 275 277 282 283 283 282 280 283 286 285 279 267 264 264 263 265 260 248 244 244 241 237 231 226 224 224 223 220 218 216 215 214 214 213 214 215 214 212 212 209 209 212 210 204
32 29 23 17 17 19 18 15 13 10 7 6 5 4 6 6 4 3 0 358 356 353 349 344 339 336 334 331 328 324 319 313 309 301 293 290 289 289 285 281 280 278 275 275 278 281 280 279 284 286 285 283 276 269 266 265 264 261 255 249 246 243 240 235 229 223 223 224 222 219 217 215 214 214 214 214 216 216 214 213 212 209 211 212 207
29 27 23 22 24 23 22 20 19 17 14 13 11 9 11 11 8 6 5 4 3 1 357 353 350 347 343 339 334 331 328 325 322 317 310 304 299 297 292 286 283 281 281 279 275 278 280 279 283 285 283 281 279 275 271 268 265 263 260 253 246 243 243 241 235 226 222 223 223 221 218 217 215 214 215 215 215 217 215 214 214 212 211 212 210
33 31 29 29 30 29 28 26 24 23 21 19 17 15 15 14 12 10 9 8 7 4 359 355 354 352 348 344 339 336 335 335 336 332 325 319 313 305 298 291 282 277 283 290 286 282 282 281 281 282 281 279 278 277 274 267 264 265 262 254 247 242 239 241 240 232 224 221 223 223 219 218 217 215 216 216 216 218 217 215 215 214 212 211 212
40 38 38 37 36 35 33 32 30 29 28 25 22 19 18 18 18 16 15 14 12 6 358 354 354 352 349 347 343 341 342 342 341 339 332 326 321 314 307 300 291 282 280 286 290 291 289 286 282 280 281 280 277 277 274 267 264 266 261 251 243 238 236 240 242 238 230 222 222 224 221 219 218 217 217 217 217 219 220 218 215 215 215 212 212
47 45 44 43 42 40 38 36 35 33 31 29 26 24 21 20 19 17 16 15 11 4 357 355 354 352 350 351 348 343 342 342 340 337 332 327 322 319 316 312 307 299 290 285 285 289 293 292 287 281 279 279 278 276 273 270 269 266 260 251 241 235 236 240 241 241 236 226 221 222 222 220 220 218 218 218 218 219 221 221 217 216 217 215 213
53 51 50 48 46 45 42 39 37 34 32 30 28 27 24 22 19 16 14 11 6 360 356 354 353 350 349 349 347 343 341 339 337 334 331 326 322 319 316 313 310 307 304 297 290 287 288 290 289 286 280 277 278 277 273 273 271 264 259 254 245 237 236 238 238 239 239 231 223 221 222 221 220 220 219 218 218 219 221 222 221 218 217 217 215
58 56 54 52 50 48 45 42 38 35 34 31 29 28 26 24 21 17 13 8 2 360 357 354 352 350 349 347 344 343 342 340 338 335 331 327 324 321 317 313 310 306 304 303 299 292 287 284 284 286 283 275 274 276 274 273 270 263 258 255 249 242 237 237 237 237 240 238 229 223 222 221 220 220 220 220 219 219 219 222 222 220 217 217 217
61 59 57 55 53 50 47 43 39 36 34 32 30 28 26 26 22 16 11 7 3 1 359 355 353 351 349 347 345 345 345 344 342 338 334 329 326 323 320 317 313 308 304 302 302 299 293 285 280 281 281 274 270 274 274 270 267 261 255 252 250 244 238 236 238 236 236 239 233 226 223 222 220 220 220 220 220 219 219 221 222 222 219 218 218
64 62 60 57 55 52 48 43 39 36 33 31 30 28 26 25 23 14 9 8 4 3 1 357 355 354 351 350 348 347 346 345 344 342 339 336 331 326 323 320 316 311 306 302 300 300 298 293 284 278 279 276 271 273 274 271 269 264 253 249 248 245 240 237 236 235 235 236 232 227 226 224 221 221 220 220 221 221 220 220 222 222 221 219 218
66 63 61 59 57 54 49 45 40 36 32 29 27 26 24 23 22 15 9 8 5 4 5 2 358 356 354 352 351 349 347 346 344 344 342 342 338 332 326 321 315 312 309 305 301 298 297 296 290 281 278 276 270 269 274 272 267 262 253 247 246 243 240 239 237 237 238 236 230 227 228 227 223 222 221 220 222 222 221 221 221 222 222 220 218
66 64 62 61 59 55 51 47 42 37 34 29 25 23 21 20 22 18 11 9 7 4 5 4 2 359 356 355 353 352 351 348 344 343 342 343 342 338 333 327 318 312 309 307 305 301 297 296 294 287 281 277 269 263 269 271 267 264 259 251 248 245 243 243 242 242 241 238 233 228 227 227 225 223 222 221 221 221 221 221 221 222 223 222 219
66 65 63 62 60 58 54 49 44 39 35 31 27 24 21 20 24 23 14 11 10 6 4 4 3 1 358 357 356 355 355 352 346 343 342 341 341 338 336 333 327 320 314 310 308 305 301 295 293 289 282 277 271 262 266 271 270 268 263 254 251 248 245 243 245 247 244 240 237 234 229 228 227 224 223 222 222 221 221 221 221 222 222 222 220
67 65 63 62 60 58 56 50 46 42 38 33 30 27 24 23 27 28 18 13 13 10 7 6 3 1 360 0 0 358 357 356 351 348 346 343 340 336 333 332 330 330 326 319 315 313 308 299 292 287 280 276 273 266 266 270 268 264 261 256 252 250 246 240 240 246 247 242 238 237 235 234 231 228 226 224 222 221 220 220 220 221 222 222 221
67 65 64 63 61 58 57 52 48 44 39 36 32 30 28 27 32 35 24 15 16 13 11 9 4 2 1 3 4 0 358 357 353 349 349 348 345 341 337 334 332 333 333 326 319 314 310 304 294 285 277 275 274 268 263 265 265 262 259 257 252 248 246 242 238 242 248 246 239 238 239 239 237 235 232 228 225 223 222 222 221 221 222 222 221
69 66 64 63 60 58 58 54 49 45 41 38 35 33 31 30 35 38 27 17 19 16 13 11 7 5 4 5 6 3 359 358 353 349 348 349 349 347 344 340 336 336 337 327 316 307 302 301 295 284 277 275 275 271 263 262 264 262 260 260 256 248 246 244 241 242 249 250 244 239 237 238 239 238 235 232 229 227 225 224 223 223 222 222 222
69 66 63 62 60 58 59 56 51 46 43 40 37 36 34 34 38 39 27 21 22 18 15 14 10 9 7 7 6 4 1 358 353 348 347 349 351 349 347 345 342 340 341 333 324 316 305 298 293 285 277 274 274 272 266 260 259 259 259 261 260 254 249 247 245 246 249 251 248 240 234 234 237 238 237 234 231 229 228 226 224 224 223 222 222
69 66 63 62 60 58 59 58 52 46 43 40 39 38 36 38 40 38 27 25 23 18 17 16 13 10 9 9 7 4 3 360 353 349 348 350 352 349 347 348 346 343 343 339 334 329 316 302 293 286 279 273 271 271 269 262 254 254 257 257 259 261 258 254 252 251 249 248 247 242 238 237 238 239 241 239 234 232 230 228 226 225 225 223 222
69 67 64 62 60 58 57 57 53 47 43 40 40 39 37 39 42 37 27 26 24 20 19 17 13 11 11 11 9 7 5 2 355 352 352 353 354 353 351 350 349 346 345 345 341 333 320 305 293 287 281 274 270 270 269 262 250 248 250 251 253 257 257 255 252 250 248 247 243 241 243 245 247 250 251 247 242 237 233 230 228 227 225 224 223
71 68 64 61 59 56 56 57 54 48 44 40 40 40 38 39 42 38 31 29 25 21 20 17 14 11 9 10 11 10 9 6 0 358 358 358 358 358 357 357 356 352 350 351 348 337 325 308 294 288 287 280 273 269 265 257 247 243 244 247 250 251 252 252 249 246 247 247 243 240 242 244 248 254 257 251 246 242 237 234 232 229 226 225 224
72 70 66 63 60 57 53 54 54 50 44 41 39 40 38 38 40 39 35 30 26 23 21 17 16 13 9 10 12 14 14 11 8 5 3 3 3 3 2 2 3 3 2 3 359 347 335 317 295 288 291 286 275 271 267 259 248 241 237 240 246 248 249 251 249 246 245 246 245 241 240 241 242 245 250 250 245 240 236 235 233 231 229 226 225
74 72 70 66 63 61 56 53 53 51 45 40 37 38 38 37 38 38 35 31 28 24 21 18 17 16 13 11 13 16 17 16 15 12 9 8 9 9 7 5 5 7 11 15 14 8 2 356 350 4 24 41 68 62 283 264 247 238 235 236 238 240 243 247 249 246 242 245 248 243 240 242 241 239 242 244 241 236 234 232 229 229 228 225 224